Location: Allaines
(49.9632°N, 2.9458°E)
Time: 06:18:49
(UTC+00:00)

Tiangong - Pass Details

Date: 30 June 2021
Orbit: 373 x 386 km, 41.5° (Epoch: 03 August)

Event Time Altitude Azimuth Distance (km) Brightness Sun altitude
Exits shadow 02:19:52 13° 188° (S) 1,225 3.1 -9.9°
Drops below altitude 10° 02:21:05 10° 165° (SSE) 1,384 3.5 -9.7°
Sets 02:23:57 0° 136° (SE) 2,237 4.8 -9.5°
